Location: Newark
(40.0667°N, 18.0500°E)
Time: 01:39:42
(UTC+00:00)

N. Korean satellite - Pass Details

Date: 04 February 2020
Orbit: 456 x 505 km, 97.2° (Epoch: 21 February)

Event Time Altitude Azimuth Distance (km) Brightness Sun altitude
Rises 04:34:52 0° 11° (NNE) 2,578 10.3 -15.5°
Reaches altitude 10° 04:36:57 10° 12° (NNE) 1,698 9.4 -15.1°
Maximum altitude 04:40:37 89° 96° (E) 505 6.6 -14.4°
Drops below altitude 10° 04:44:17 10° 192° (SSW) 1,704 9.3 -13.7°
Sets 04:46:22 0° 193° (SSW) 2,587 10.2 -13.3°
